Flag for Germany Weather past 2 weeks in Braunschweig, Lower Saxony, Germany

Now
46 °F

Sunny.


Feels Like: 43 °F
Forecast: 40 / 49 °F
Wind: 7 mph from South

Location: Braunschweig


UV Index: 0 (Low)

Visibility: 10 mi


Pressure: 30.27 "Hg

Humidity: 53%

Dew point: 30 °F

Location of BraunschweigLocation

Historic Weather in Braunschweig

°F

Braunschweig temperature yesterday

Maximum temperature yesterday: 57 °F (at 7:20 PM)
Minimum temperature yesterday: 32 °F (at 6:50 AM)
Average temperature yesterday: 49 °F

Past Weeks' High & Low Weather Summary

 TemperatureHumidityPressure
High72 °F (Apr 3, 2:50 PM)100% (Apr 2, 7:20 AM)30.48 "Hg (Apr 2, 7:20 AM)
Low32 °F (Apr 16, 6:50 AM)36% (Apr 16, 7:20 PM)29.65 "Hg (Apr 3, 6:50 AM)
Average52 °F82%30.00 "Hg
* Reported Apr 2 7:20 AM — Apr 17 7:50 AM, Braunschweig, Weather by CustomWeather, © 2014

Note: Actual official high and low records may vary slightly from our data, if they occured in-between our weather recording intervals... More about our weather records

Advertising

Historic Weather Conditions — Data for Previous 24 hours

 ConditionsComfort  
Time TempWeatherWind HumidityBarometerVisibility
7:50 AM
Apr 17
37 °FSunny.8 mph100%30.30 "Hg10 mi
7:20 AM36 °FSunny.6 mph93%30.30 "Hg10 mi
6:50 AM34 °FClear.7 mph100%30.30 "Hg10 mi
9:20 PM
Apr 16
46 °FClear.6 mph53%30.39 "Hg10 mi
8:50 PM46 °FSunny.6 mph53%30.39 "Hg10 mi
8:20 PM50 °FSunny.5 mph47%30.39 "Hg10 mi
7:50 PM54 °FPassing clouds.6 mph41%30.39 "HgN/A
7:20 PM57 °FSunny.5 mph36%30.39 "Hg10 mi
6:50 PM55 °FSunny.7 mph38%30.39 "Hg10 mi
6:20 PM55 °FSunny.2 mph38%30.39 "Hg10 mi
5:50 PM55 °FSunny.3 mph41%30.42 "Hg10 mi
5:20 PM54 °FSunny.6 mph44%30.42 "Hg10 mi
4:50 PM54 °FPassing clouds.6 mph41%30.42 "HgN/A
4:20 PM54 °FSunny.2 mph41%30.42 "Hg10 mi
3:50 PM55 °FSunny.3 mph38%30.42 "Hg10 mi
3:20 PM55 °FSunny.3 mph38%30.42 "Hg10 mi
2:50 PM55 °FPassing clouds.7 mph38%30.42 "HgN/A
2:20 PM55 °FSunny.2 mph41%30.45 "Hg10 mi
1:50 PM54 °FSunny.7 mph41%30.45 "Hg10 mi
1:20 PM52 °FPassing clouds.8 mph44%30.45 "HgN/A
12:50 PM52 °FPassing clouds.6 mph54%30.45 "HgN/A
12:20 PM52 °FPassing clouds.6 mph47%30.45 "HgN/A
11:50 AM50 °FPassing clouds.6 mph58%30.45 "HgN/A
11:20 AM50 °FPassing clouds.1 mph67%30.45 "HgN/A
10:50 AM48 °FPassing clouds.2 mph71%30.48 "HgN/A
10:20 AM48 °FPassing clouds.2 mph82%30.48 "HgN/A
9:50 AM45 °FSunny.2 mph93%30.45 "Hg10 mi
9:20 AM43 °FSunny.1 mph93%30.45 "Hg10 mi
Weather by CustomWeather, © 2014

See weather overview